Terminal Aerodrome Forecast
Issued by NWS Buffalo, NY

Home | Current Version | Previous Version | Text Only | Print | Product List | Glossary On
Versions: 1 2 3 4 5 6 7 8 9 10 11 12 13 14 15 16 17 18 19 20 21 22 23 24
000
FTUS41 KBUF 190529
TAFROC
TAF
KROC 190529Z 1906/2006 21008KT P6SM SKC WS020/24040KT
     FM191000 21010G16KT P6SM SKC WS020/24035KT
     FM191500 24014G22KT P6SM SCT250
     FM191900 26018G26KT P6SM BKN050
     FM192300 26012KT P6SM SCT050
     FM200100 27007KT P6SM SKC=

USA.gov is the U.S. government's official web portal to all federal, state and local government web resources and services.